Time,TemperatureF,DewpointF,PressureIn,WindDirection,WindDirectionDegrees,WindSpeedMPH,WindSpeedGustMPH,Humidity,HourlyPrecipIn,Conditions,Clouds,dailyrainin,SoftwareType,DateUTC
2013-05-05 00:02:00,38.7,33.3,30.17,NE,53,6.3,8.3,81,0.00,,---,0.00,VWS V14.00,2013-05-05 05:02:00,
2013-05-05 00:07:00,38.5,33.2,30.17,North,10,6.3,6.3,81,0.00,,---,0.00,VWS V14.00,2013-05-05 05:07:00,
2013-05-05 00:12:00,38.5,33.2,30.17,North,11,5.8,6.3,81,0.00,,---,0.00,VWS V14.00,2013-05-05 05:12:00,
2013-05-05 00:17:00,38.5,33.2,30.17,NNE,28,5.4,6.3,81,0.00,,---,0.00,VWS V14.00,2013-05-05 05:17:00,
2013-05-05 00:22:00,38.5,33.5,30.17,NNE,21,5.4,6.3,82,0.00,,---,0.00,VWS V14.00,2013-05-05 05:22:00,
2013-05-05 00:28:00,38.5,33.5,30.17,NE,45,5.4,7.6,82,0.00,,---,0.00,VWS V14.00,2013-05-05 05:28:00,
2013-05-05 00:33:00,38.5,33.5,30.17,NNE,28,7.2,8.7,82,0.00,,---,0.00,VWS V14.00,2013-05-05 05:33:00,
2013-05-05 00:38:00,38.5,33.5,30.17,NE,35,4.0,5.8,82,0.00,,---,0.00,VWS V14.00,2013-05-05 05:38:00,
2013-05-05 00:43:00,38.5,33.5,30.17,North,8,3.1,4.0,82,0.00,,---,0.00,VWS V14.00,2013-05-05 05:43:00,
2013-05-05 00:48:00,38.5,33.5,30.17,NNE,33,4.9,6.3,82,0.00,,---,0.00,VWS V14.00,2013-05-05 05:48:00,
2013-05-05 00:53:00,38.3,33.3,30.17,NNE,31,5.8,7.6,82,0.00,,---,0.00,VWS V14.00,2013-05-05 05:53:00,
2013-05-05 00:58:00,38.3,33.3,30.14,NNE,21,5.4,8.3,82,0.00,,---,0.00,VWS V14.00,2013-05-05 05:58:00,
2013-05-05 01:03:00,38.3,33.3,30.14,NNE,18,5.4,6.3,82,0.00,,---,0.00,VWS V14.00,2013-05-05 06:03:00,
2013-05-05 01:08:00,38.3,33.3,30.14,NNE,12,5.8,8.1,82,0.00,,---,0.00,VWS V14.00,2013-05-05 06:08:00,
2013-05-05 01:13:00,38.3,33.6,30.17,NNE,25,5.4,8.1,83,0.00,,---,0.00,VWS V14.00,2013-05-05 06:13:00,
2013-05-05 01:18:00,38.3,33.6,30.17,NNE,31,8.1,8.1,83,0.00,,---,0.00,VWS V14.00,2013-05-05 06:18:00,
2013-05-05 01:23:00,38.3,33.6,30.17,NE,41,5.4,5.8,83,0.00,,---,0.00,VWS V14.00,2013-05-05 06:23:00,
2013-05-05 01:28:00,38.1,33.4,30.17,NNE,24,5.4,6.7,83,0.00,,---,0.00,VWS V14.00,2013-05-05 06:28:00,
2013-05-05 01:33:00,38.1,33.7,30.17,NNE,23,5.4,8.1,84,0.00,,---,0.00,VWS V14.00,2013-05-05 06:33:00,
2013-05-05 01:38:00,38.1,33.7,30.17,ENE,63,6.3,8.7,84,0.00,,---,0.00,VWS V14.00,2013-05-05 06:38:00,
2013-05-05 01:43:00,38.1,33.7,30.17,NNE,19,5.4,5.8,84,0.00,,---,0.00,VWS V14.00,2013-05-05 06:43:00,
2013-05-05 01:48:00,38.1,33.7,30.17,NNE,19,5.8,5.8,84,0.00,,---,0.00,VWS V14.00,2013-05-05 06:48:00,
2013-05-05 01:53:00,38.1,33.7,30.17,NNE,32,3.6,6.3,84,0.00,,---,0.00,VWS V14.00,2013-05-05 06:53:00,
2013-05-05 01:58:00,38.1,34.0,30.14,North,10,4.9,5.4,85,0.00,,---,0.00,VWS V14.00,2013-05-05 06:58:00,
2013-05-05 02:03:00,38.1,34.0,30.14,NNE,17,5.4,5.8,85,0.00,,---,0.00,VWS V14.00,2013-05-05 07:03:00,
2013-05-05 02:08:00,38.1,34.0,30.14,North,0,8.1,8.1,85,0.00,,---,0.00,VWS V14.00,2013-05-05 07:08:00,
2013-05-05 02:13:00,38.1,34.0,30.14,NNE,18,8.1,8.1,85,0.00,,---,0.00,VWS V14.00,2013-05-05 07:13:00,
2013-05-05 02:18:00,38.1,34.0,30.14,North,5,5.8,6.3,85,0.00,,---,0.00,VWS V14.00,2013-05-05 07:18:00,
2013-05-05 02:23:00,38.1,34.3,30.14,North,8,8.3,8.3,86,0.00,,---,0.00,VWS V14.00,2013-05-05 07:23:00,
2013-05-05 02:28:00,38.1,34.3,30.14,North,8,6.3,7.6,86,0.00,,---,0.00,VWS V14.00,2013-05-05 07:28:00,
2013-05-05 02:33:00,38.1,34.3,30.14,North,7,5.4,6.3,86,0.00,,---,0.00,VWS V14.00,2013-05-05 07:33:00,
2013-05-05 02:38:00,38.1,34.3,30.14,North,357,5.8,7.6,86,0.00,,---,0.00,VWS V14.00,2013-05-05 07:38:00,
2013-05-05 02:43:00,38.1,34.6,30.14,North,0,6.3,7.6,87,0.00,,---,0.00,VWS V14.00,2013-05-05 07:43:00,
2013-05-05 02:48:00,38.1,34.6,30.14,North,9,6.3,7.6,87,0.00,,---,0.00,VWS V14.00,2013-05-05 07:48:00,
2013-05-05 02:53:00,38.1,34.6,30.14,North,357,5.8,9.6,87,0.00,,---,0.00,VWS V14.00,2013-05-05 07:53:00,
2013-05-05 02:58:00,38.1,34.6,30.14,North,0,5.4,6.3,87,0.00,,---,0.00,VWS V14.00,2013-05-05 07:58:00,
2013-05-05 03:04:00,38.1,34.9,30.14,NNE,17,6.3,6.7,88,0.00,,---,0.00,VWS V14.00,2013-05-05 08:04:00,
2013-05-05 03:09:00,38.1,34.9,30.14,North,7,4.0,6.7,88,0.00,,---,0.00,VWS V14.00,2013-05-05 08:09:00,
2013-05-05 03:14:00,38.1,34.9,30.14,North,7,7.2,8.7,88,0.00,,---,0.00,VWS V14.00,2013-05-05 08:14:00,
2013-05-05 03:19:00,37.9,34.7,30.14,North,8,7.6,7.6,88,0.00,,---,0.00,VWS V14.00,2013-05-05 08:19:00,
2013-05-05 03:24:00,37.9,34.7,30.14,NNE,22,6.3,8.1,88,0.00,,---,0.00,VWS V14.00,2013-05-05 08:24:00,
2013-05-05 03:29:00,37.9,34.7,30.14,NNE,15,9.2,11.0,88,0.00,,---,0.00,VWS V14.00,2013-05-05 08:29:00,
2013-05-05 03:34:00,37.9,34.7,30.14,North,8,6.3,9.6,88,0.00,,---,0.00,VWS V14.00,2013-05-05 08:34:00,
2013-05-05 03:39:00,37.9,34.7,30.14,North,9,6.7,7.6,88,0.00,,---,0.00,VWS V14.00,2013-05-05 08:39:00,
2013-05-05 03:44:00,38.1,34.9,30.14,NNE,13,6.3,6.7,88,0.00,,---,0.00,VWS V14.00,2013-05-05 08:44:00,
2013-05-05 03:49:00,38.1,34.9,30.14,North,3,7.6,8.1,88,0.00,,---,0.00,VWS V14.00,2013-05-05 08:49:00,
2013-05-05 03:54:00,37.9,34.7,30.14,North,8,7.6,8.3,88,0.00,,---,0.00,VWS V14.00,2013-05-05 08:54:00,
2013-05-05 03:59:00,37.9,34.7,30.14,NNE,29,7.6,7.6,88,0.00,,---,0.00,VWS V14.00,2013-05-05 08:59:00,
2013-05-05 04:04:00,37.9,34.7,30.14,NE,34,8.7,8.7,88,0.00,,---,0.00,VWS V14.00,2013-05-05 09:04:00,
2013-05-05 04:09:00,37.9,34.7,30.14,NNE,26,5.4,8.1,88,0.00,,---,0.00,VWS V14.00,2013-05-05 09:09:00,
2013-05-05 04:14:00,37.8,34.5,30.14,NE,42,8.1,8.1,88,0.00,,---,0.00,VWS V14.00,2013-05-05 09:14:00,
2013-05-05 04:19:00,37.6,34.3,30.14,NNE,22,6.3,6.3,88,0.00,,---,0.00,VWS V14.00,2013-05-05 09:19:00,
2013-05-05 04:24:00,37.6,34.3,30.14,NNE,22,8.3,10.1,88,0.00,,---,0.00,VWS V14.00,2013-05-05 09:24:00,
2013-05-05 04:29:00,37.6,34.3,30.14,NNE,24,5.4,5.4,88,0.00,,---,0.00,VWS V14.00,2013-05-05 09:29:00,
2013-05-05 04:34:00,37.4,34.2,30.14,NNE,24,6.3,6.7,88,0.00,,---,0.00,VWS V14.00,2013-05-05 09:34:00,
2013-05-05 04:39:00,37.4,34.2,30.14,NNE,33,6.3,6.3,88,0.00,,---,0.00,VWS V14.00,2013-05-05 09:39:00,
2013-05-05 04:44:00,37.4,34.2,30.14,North,11,4.0,4.0,88,0.00,,---,0.00,VWS V14.00,2013-05-05 09:44:00,
2013-05-05 04:49:00,37.4,34.2,30.14,NNE,15,3.6,4.0,88,0.00,,---,0.00,VWS V14.00,2013-05-05 09:49:00,
2013-05-05 04:54:00,37.4,34.2,30.14,NE,41,4.0,5.4,88,0.00,,---,0.00,VWS V14.00,2013-05-05 09:54:00,
2013-05-05 04:59:00,37.4,34.2,30.14,NNE,15,4.9,5.4,88,0.00,,---,0.00,VWS V14.00,2013-05-05 09:59:00,
2013-05-05 05:04:00,37.4,34.2,30.14,NNE,23,7.2,9.6,88,0.00,,---,0.00,VWS V14.00,2013-05-05 10:04:00,
2013-05-05 05:09:00,37.4,34.2,30.14,North,357,8.3,8.3,88,0.00,,---,0.00,VWS V14.00,2013-05-05 10:09:00,
2013-05-05 05:14:00,37.4,33.9,30.14,North,0,6.3,6.7,87,0.00,,---,0.00,VWS V14.00,2013-05-05 10:14:00,
2013-05-05 05:19:00,37.2,34.0,30.14,North,353,5.8,8.7,88,0.00,,---,0.00,VWS V14.00,2013-05-05 10:19:00,
2013-05-05 05:24:00,37.2,34.0,30.14,NNE,12,5.8,5.8,88,0.00,,---,0.00,VWS V14.00,2013-05-05 10:24:00,
2013-05-05 05:29:00,37.0,33.8,30.14,NNE,15,5.4,5.8,88,0.00,,---,0.00,VWS V14.00,2013-05-05 10:29:00,
2013-05-05 05:34:00,37.0,33.8,30.14,NNE,13,3.6,5.8,88,0.00,,---,0.00,VWS V14.00,2013-05-05 10:34:00,
2013-05-05 05:39:00,37.0,33.8,30.14,NE,34,3.6,4.9,88,0.00,,---,0.00,VWS V14.00,2013-05-05 10:39:00,
2013-05-05 05:45:00,37.0,33.8,30.14,North,9,5.4,5.4,88,0.00,,---,0.00,VWS V14.00,2013-05-05 10:45:00,
2013-05-05 05:50:00,37.0,33.8,30.14,NNE,13,4.9,6.3,88,0.00,,---,0.00,VWS V14.00,2013-05-05 10:50:00,
2013-05-05 05:55:00,37.0,33.8,30.14,North,8,5.4,7.2,88,0.00,,---,0.00,VWS V14.00,2013-05-05 10:55:00,
2013-05-05 06:00:00,37.2,34.0,30.14,North,11,8.3,8.3,88,0.00,,---,0.04,VWS V14.00,2013-05-05 11:00:00,
2013-05-05 06:05:00,37.4,33.9,30.14,North,3,5.4,6.3,87,0.00,,---,0.00,VWS V14.00,2013-05-05 11:05:00,
2013-05-05 06:10:00,37.4,33.9,30.14,NNE,13,3.6,4.0,87,0.00,,---,0.00,VWS V14.00,2013-05-05 11:10:00,
2013-05-05 06:15:00,37.4,33.9,30.17,North,357,5.8,6.3,87,0.00,,---,0.00,VWS V14.00,2013-05-05 11:15:00,
2013-05-05 06:20:00,37.6,34.3,30.17,North,10,5.8,5.8,88,0.00,,---,0.00,VWS V14.00,2013-05-05 11:20:00,
2013-05-05 06:25:00,37.6,34.3,30.17,NNE,20,7.6,7.6,88,0.00,,---,0.00,VWS V14.00,2013-05-05 11:25:00,
2013-05-05 06:30:00,37.6,34.3,30.17,NNW,348,4.9,6.3,88,0.00,,---,0.00,VWS V14.00,2013-05-05 11:30:00,
2013-05-05 06:35:00,37.6,34.3,30.17,NNE,22,4.0,5.8,88,0.00,,---,0.00,VWS V14.00,2013-05-05 11:35:00,
2013-05-05 06:40:00,37.8,34.5,30.17,NNE,20,6.3,6.3,88,0.00,,---,0.00,VWS V14.00,2013-05-05 11:40:00,
2013-05-05 06:45:00,37.9,34.7,30.17,North,357,5.8,5.8,88,0.00,,---,0.00,VWS V14.00,2013-05-05 11:45:00,
2013-05-05 06:50:00,37.9,34.7,30.17,North,8,8.1,8.1,88,0.00,,---,0.00,VWS V14.00,2013-05-05 11:50:00,
2013-05-05 06:55:00,37.9,34.7,30.17,North,6,7.6,8.7,88,0.00,,---,0.00,VWS V14.00,2013-05-05 11:55:00,
2013-05-05 07:00:00,38.1,34.9,30.17,North,357,5.8,7.6,88,0.00,,---,0.00,VWS V14.00,2013-05-05 12:00:00,
2013-05-05 07:05:00,38.1,34.9,30.17,North,0,8.1,8.3,88,0.00,,---,0.00,VWS V14.00,2013-05-05 12:05:00,
2013-05-05 07:10:00,38.3,35.1,30.17,North,2,7.2,7.2,88,0.00,,---,0.00,VWS V14.00,2013-05-05 12:10:00,
2013-05-05 07:15:00,38.5,35.2,30.17,North,9,4.5,6.7,88,0.00,,---,0.00,VWS V14.00,2013-05-05 12:15:00,
2013-05-05 07:20:00,38.7,35.4,30.17,NNE,19,7.6,8.7,88,0.00,,---,0.00,VWS V14.00,2013-05-05 12:20:00,
2013-05-05 07:25:00,38.8,35.3,30.17,NNE,14,9.2,9.2,87,0.00,,---,0.00,VWS V14.00,2013-05-05 12:25:00,
2013-05-05 07:30:00,39.0,35.5,30.17,North,11,9.2,9.2,87,0.00,,---,0.00,VWS V14.00,2013-05-05 12:30:00,
2013-05-05 07:35:00,39.2,35.4,30.17,NNE,18,9.2,9.2,86,0.00,,---,0.00,VWS V14.00,2013-05-05 12:35:00,
2013-05-05 07:40:00,39.4,35.5,30.17,North,7,5.8,8.1,86,0.00,,---,0.00,VWS V14.00,2013-05-05 12:40:00,
2013-05-05 07:45:00,39.7,35.9,30.17,NNE,13,5.8,6.3,86,0.00,,---,0.00,VWS V14.00,2013-05-05 12:45:00,
2013-05-05 07:50:00,39.9,36.1,30.17,NNE,15,8.1,8.3,86,0.00,,---,0.00,VWS V14.00,2013-05-05 12:50:00,
2013-05-05 07:55:00,39.7,35.3,30.17,NNE,21,8.3,9.2,84,0.00,,---,0.00,VWS V14.00,2013-05-05 12:55:00,
2013-05-05 08:00:00,39.7,35.0,30.17,NNE,22,7.6,11.0,83,0.00,,---,0.00,VWS V14.00,2013-05-05 13:00:00,
2013-05-05 08:05:00,40.1,35.4,30.17,North,5,7.6,8.7,83,0.00,,---,0.00,VWS V14.00,2013-05-05 13:05:00,
2013-05-05 08:10:00,40.3,35.5,30.17,North,357,6.3,6.3,83,0.00,,---,0.00,VWS V14.00,2013-05-05 13:10:00,
2013-05-05 08:15:00,40.6,35.6,30.17,North,1,8.3,8.7,82,0.00,,---,0.00,VWS V14.00,2013-05-05 13:15:00,
2013-05-05 08:20:00,40.5,34.8,30.17,NNW,342,6.3,6.3,80,0.00,,---,0.00,VWS V14.00,2013-05-05 13:20:00,
2013-05-05 08:25:00,39.9,34.0,30.17,North,10,8.1,8.3,79,0.00,,---,0.00,VWS V14.00,2013-05-05 13:25:00,
2013-05-05 08:30:00,40.3,34.6,30.17,NNE,13,8.1,9.2,80,0.00,,---,0.00,VWS V14.00,2013-05-05 13:30:00,
2013-05-05 08:35:00,40.3,34.3,30.17,North,353,5.4,7.6,79,0.00,,---,0.00,VWS V14.00,2013-05-05 13:35:00,
2013-05-05 08:40:00,40.8,35.1,30.17,NNE,29,5.4,6.3,80,0.00,,---,0.00,VWS V14.00,2013-05-05 13:40:00,
2013-05-05 08:46:00,41.5,35.8,30.17,NNE,12,8.1,8.3,80,0.00,,---,0.00,VWS V14.00,2013-05-05 13:46:00,
2013-05-05 08:51:00,41.4,35.0,30.17,North,357,8.3,8.3,78,0.00,,---,0.00,VWS V14.00,2013-05-05 13:51:00,
2013-05-05 08:56:00,41.7,35.0,30.17,North,353,7.6,8.1,77,0.00,,---,0.00,VWS V14.00,2013-05-05 13:56:00,
2013-05-05 09:01:00,42.1,35.1,30.17,North,357,8.7,9.6,76,0.00,,---,0.00,VWS V14.00,2013-05-05 14:01:00,
2013-05-05 09:06:00,42.6,35.3,30.17,NNE,23,7.6,8.3,75,0.00,,---,0.00,VWS V14.00,2013-05-05 14:06:00,
2013-05-05 09:11:00,43.7,36.0,30.17,NNE,25,7.6,8.3,74,0.00,,---,0.00,VWS V14.00,2013-05-05 14:11:00,
2013-05-05 09:16:00,44.4,36.0,30.17,NE,44,6.3,8.1,72,0.00,,---,0.00,VWS V14.00,2013-05-05 14:16:00,
2013-05-05 09:21:00,45.7,36.5,30.17,North,4,5.8,8.1,70,0.00,,---,0.00,VWS V14.00,2013-05-05 14:21:00,
2013-05-05 09:26:00,46.2,35.9,30.17,ENE,70,3.1,4.0,67,0.00,,---,0.00,VWS V14.00,2013-05-05 14:26:00,
2013-05-05 09:31:00,46.2,33.9,30.17,North,0,7.6,8.7,62,0.00,,---,0.00,VWS V14.00,2013-05-05 14:31:00,
2013-05-05 09:36:00,45.9,33.2,30.17,North,357,3.6,5.8,61,0.00,,---,0.00,VWS V14.00,2013-05-05 14:36:00,
2013-05-05 09:41:00,45.9,33.2,30.17,NNE,21,6.3,8.3,61,0.00,,---,0.00,VWS V14.00,2013-05-05 14:41:00,
2013-05-05 09:46:00,45.3,32.7,30.17,North,0,7.6,8.7,61,0.00,,---,0.00,VWS V14.00,2013-05-05 14:46:00,
2013-05-05 09:51:00,45.1,33.3,30.17,North,353,6.7,7.6,63,0.00,,---,0.00,VWS V14.00,2013-05-05 14:51:00,
2013-05-05 09:56:00,45.1,33.7,30.17,NNW,343,7.2,8.1,64,0.00,,---,0.00,VWS V14.00,2013-05-05 14:56:00,
2013-05-05 10:01:00,44.8,33.4,30.17,North,2,8.7,10.5,64,0.00,,---,0.00,VWS V14.00,2013-05-05 15:01:00,
2013-05-05 10:06:00,44.6,33.2,30.17,NNE,24,5.8,8.3,64,0.00,,---,0.00,VWS V14.00,2013-05-05 15:06:00,
2013-05-05 10:11:00,45.1,34.1,30.17,NNW,348,5.4,7.6,65,0.00,,---,0.00,VWS V14.00,2013-05-05 15:11:00,
2013-05-05 10:16:00,45.9,34.4,30.17,North,4,5.4,8.7,64,0.00,,---,0.00,VWS V14.00,2013-05-05 15:16:00,
2013-05-05 10:21:00,46.0,33.8,30.17,NNE,12,6.3,7.6,62,0.00,,---,0.00,VWS V14.00,2013-05-05 15:21:00,
2013-05-05 10:26:00,46.8,33.6,30.17,North,353,7.6,8.7,60,0.00,,---,0.00,VWS V14.00,2013-05-05 15:26:00,
2013-05-05 10:31:00,47.1,34.4,30.17,NNE,31,5.4,7.6,61,0.00,,---,0.00,VWS V14.00,2013-05-05 15:31:00,
2013-05-05 10:36:00,48.0,34.0,30.17,NNW,339,5.8,8.1,58,0.00,,---,0.00,VWS V14.00,2013-05-05 15:36:00,
2013-05-05 10:41:00,49.1,34.5,30.17,North,357,8.7,10.1,57,0.00,,---,0.00,VWS V14.00,2013-05-05 15:41:00,
2013-05-05 10:46:00,49.8,33.9,30.17,NNW,327,4.9,7.2,54,0.00,,---,0.00,VWS V14.00,2013-05-05 15:46:00,
2013-05-05 10:51:00,50.7,33.8,30.17,NNE,24,8.1,10.1,52,0.00,,---,0.00,VWS V14.00,2013-05-05 15:51:00,
2013-05-05 10:56:00,49.8,31.9,30.17,NNW,329,6.7,10.5,50,0.00,,---,0.00,VWS V14.00,2013-05-05 15:56:00,
2013-05-05 11:01:00,50.7,33.8,30.14,NNW,327,2.7,8.1,52,0.00,,---,0.00,VWS V14.00,2013-05-05 16:01:00,
2013-05-05 11:07:00,52.3,33.8,30.14,North,349,8.7,12.3,49,0.00,,---,0.00,VWS V14.00,2013-05-05 16:07:00,
2013-05-05 11:12:00,53.1,33.9,30.14,NW,321,4.9,10.5,48,0.00,,---,0.00,VWS V14.00,2013-05-05 16:12:00,
2013-05-05 11:17:00,53.4,33.2,30.14,NNW,327,4.0,7.6,46,0.00,,---,0.00,VWS V14.00,2013-05-05 16:17:00,
2013-05-05 11:22:00,53.4,34.2,30.14,NE,39,4.0,8.7,48,0.00,,---,0.00,VWS V14.00,2013-05-05 16:22:00,
2013-05-05 11:27:00,53.8,34.0,30.14,NW,321,5.4,7.6,47,0.00,,---,0.00,VWS V14.00,2013-05-05 16:27:00,
2013-05-05 11:32:00,54.3,34.5,30.14,NNW,332,5.4,6.3,47,0.00,,---,0.00,VWS V14.00,2013-05-05 16:32:00,
2013-05-05 11:37:00,54.0,33.7,30.14,NW,318,8.1,8.1,46,0.00,,---,0.00,VWS V14.00,2013-05-05 16:37:00,
2013-05-05 11:42:00,54.0,34.2,30.14,NW,308,5.8,8.1,47,0.00,,---,0.00,VWS V14.00,2013-05-05 16:42:00,
2013-05-05 11:47:00,54.1,34.4,30.14,WNW,299,2.2,6.7,47,0.00,,---,0.00,VWS V14.00,2013-05-05 16:47:00,
2013-05-05 11:52:00,54.9,34.5,30.14,NW,312,8.3,8.3,46,0.00,,---,0.00,VWS V14.00,2013-05-05 16:52:00,
2013-05-05 11:57:00,55.2,34.3,30.14,NW,320,6.3,10.1,45,0.00,,---,0.00,VWS V14.00,2013-05-05 16:57:00,
2013-05-05 12:02:00,55.4,35.0,30.14,North,353,5.4,6.3,46,0.00,,---,0.00,VWS V14.00,2013-05-05 17:02:00,
2013-05-05 12:07:00,55.6,34.6,30.14,North,353,8.1,8.3,45,0.00,,---,0.00,VWS V14.00,2013-05-05 17:07:00,
2013-05-05 12:12:00,55.6,34.6,30.14,North,6,4.0,7.2,45,0.00,,---,0.00,VWS V14.00,2013-05-05 17:12:00,
2013-05-05 12:17:00,56.5,36.0,30.14,NNW,342,5.8,5.8,46,0.00,,---,0.00,VWS V14.00,2013-05-05 17:17:00,
2013-05-05 12:22:00,56.7,33.8,30.14,NNW,341,6.3,6.3,42,0.00,,---,0.00,VWS V14.00,2013-05-05 17:22:00,
2013-05-05 12:27:00,57.0,35.9,30.14,North,349,8.7,8.7,45,0.00,,---,0.00,VWS V14.00,2013-05-05 17:27:00,
2013-05-05 12:32:00,56.7,34.4,30.14,NNW,346,8.3,10.1,43,0.00,,---,0.00,VWS V14.00,2013-05-05 17:32:00,
2013-05-05 12:37:00,56.8,35.7,30.14,NW,322,4.5,5.4,45,0.00,,---,0.00,VWS V14.00,2013-05-05 17:37:00,
2013-05-05 12:42:00,58.8,37.5,30.14,NW,321,4.0,6.3,45,0.00,,---,0.00,VWS V14.00,2013-05-05 17:42:00,
2013-05-05 12:47:00,59.4,35.1,30.14,NE,36,3.1,8.1,40,0.00,,---,0.00,VWS V14.00,2013-05-05 17:47:00,
2013-05-05 12:52:00,59.2,34.3,30.14,NNW,335,6.3,6.3,39,0.00,,---,0.00,VWS V14.00,2013-05-05 17:52:00,
2013-05-05 12:57:00,58.6,35.0,30.14,WNW,302,4.0,4.9,41,0.00,,---,0.00,VWS V14.00,2013-05-05 17:57:00,
2013-05-05 13:02:00,58.8,34.6,30.14,NW,326,3.6,8.1,40,0.00,,---,0.00,VWS V14.00,2013-05-05 18:02:00,
2013-05-05 13:07:00,58.5,34.9,30.14,North,357,5.4,5.4,41,0.00,,---,0.00,VWS V14.00,2013-05-05 18:07:00,
2013-05-05 13:12:00,58.5,36.1,30.14,North,5,6.3,6.3,43,0.00,,---,0.00,VWS V14.00,2013-05-05 18:12:00,
2013-05-05 13:18:00,59.4,35.7,30.14,NNW,345,6.3,8.1,41,0.00,,---,0.00,VWS V14.00,2013-05-05 18:18:00,
2013-05-05 13:23:00,59.0,34.7,30.14,North,0,3.6,4.9,40,0.00,,---,0.00,VWS V14.00,2013-05-05 18:23:00,
2013-05-05 13:28:00,59.7,36.0,30.11,NNW,342,3.1,3.6,41,0.00,,---,0.00,VWS V14.00,2013-05-05 18:28:00,
2013-05-05 13:33:00,60.4,36.7,30.11,North,0,5.4,5.4,41,0.00,,---,0.00,VWS V14.00,2013-05-05 18:33:00,
2013-05-05 13:38:00,61.0,36.5,30.11,NNE,22,3.1,6.3,40,0.00,,---,0.00,VWS V14.00,2013-05-05 18:38:00,
2013-05-05 13:43:00,60.8,35.7,30.11,NW,317,2.7,3.6,39,0.00,,---,0.00,VWS V14.00,2013-05-05 18:43:00,
2013-05-05 13:48:00,61.0,36.5,30.11,North,357,5.8,8.1,40,0.00,,---,0.00,VWS V14.00,2013-05-05 18:48:00,
2013-05-05 13:53:00,61.2,36.7,30.11,NNE,25,3.6,4.0,40,0.00,,---,0.00,VWS V14.00,2013-05-05 18:53:00,
2013-05-05 13:58:00,62.2,37.0,30.11,NNE,24,5.8,5.8,39,0.00,,---,0.00,VWS V14.00,2013-05-05 18:58:00,
2013-05-05 14:03:00,62.6,36.0,30.11,NNE,13,3.1,6.3,37,0.00,,---,0.00,VWS V14.00,2013-05-05 19:03:00,
2013-05-05 14:08:00,62.4,36.5,30.11,NNE,24,3.6,4.0,38,0.00,,---,0.00,VWS V14.00,2013-05-05 19:08:00,
2013-05-05 14:13:00,63.0,37.0,30.11,North,0,5.4,6.3,38,0.00,,---,0.00,VWS V14.00,2013-05-05 19:13:00,
2013-05-05 14:18:00,62.4,36.5,30.11,North,0,3.1,4.9,38,0.00,,---,0.00,VWS V14.00,2013-05-05 19:18:00,
2013-05-05 14:23:00,62.6,37.3,30.11,NE,35,4.0,5.4,39,0.00,,---,0.00,VWS V14.00,2013-05-05 19:23:00,
2013-05-05 14:28:00,63.7,37.6,30.11,SW,222,4.0,4.0,38,0.00,,---,0.00,VWS V14.00,2013-05-05 19:28:00,
2013-05-05 14:33:00,64.9,38.1,30.11,NNE,12,6.3,7.6,37,0.00,,---,0.00,VWS V14.00,2013-05-05 19:33:00,
2013-05-05 14:38:00,64.0,36.6,30.11,NW,318,4.0,6.3,36,0.00,,---,0.00,VWS V14.00,2013-05-05 19:38:00,
2013-05-05 14:43:00,63.7,37.0,30.11,NNE,32,5.8,6.3,37,0.00,,---,0.00,VWS V14.00,2013-05-05 19:43:00,
2013-05-05 14:48:00,64.4,37.6,30.11,North,0,5.8,5.8,37,0.00,,---,0.00,VWS V14.00,2013-05-05 19:48:00,
2013-05-05 14:53:00,65.8,38.9,30.11,NNE,20,5.4,5.4,37,0.00,,---,0.00,VWS V14.00,2013-05-05 19:53:00,
2013-05-05 14:58:00,66.6,37.3,30.11,NNE,33,3.6,3.6,34,0.00,,---,0.00,VWS V14.00,2013-05-05 19:58:00,
2013-05-05 15:03:00,68.5,39.8,30.11,South,185,2.7,4.0,35,0.00,,---,0.00,VWS V14.00,2013-05-05 20:03:00,
2013-05-05 15:08:00,70.3,39.1,30.11,SE,124,4.9,5.4,32,0.00,,---,0.00,VWS V14.00,2013-05-05 20:08:00,
2013-05-05 15:13:00,70.2,39.0,30.08,ENE,58,2.7,5.8,32,0.00,,---,0.00,VWS V14.00,2013-05-05 20:13:00,
2013-05-05 15:18:00,69.8,38.6,30.08,NE,37,3.1,5.4,32,0.00,,---,0.00,VWS V14.00,2013-05-05 20:18:00,
2013-05-05 15:23:00,68.4,38.2,30.08,NNE,25,3.1,6.7,33,0.00,,---,0.00,VWS V14.00,2013-05-05 20:23:00,
2013-05-05 15:28:00,67.5,38.1,30.08,NNW,330,3.1,4.0,34,0.00,,---,0.00,VWS V14.00,2013-05-05 20:28:00,
2013-05-05 15:34:00,67.8,38.5,30.08,NNW,334,2.7,4.0,34,0.00,,---,0.00,VWS V14.00,2013-05-05 20:34:00,
2013-05-05 15:39:00,67.5,38.1,30.08,North,3,4.0,5.4,34,0.00,,---,0.00,VWS V14.00,2013-05-05 20:39:00,
2013-05-05 15:44:00,67.3,38.0,30.08,North,9,3.1,5.8,34,0.00,,---,0.00,VWS V14.00,2013-05-05 20:44:00,
2013-05-05 15:49:00,67.1,38.6,30.08,WNW,299,4.0,4.0,35,0.00,,---,0.00,VWS V14.00,2013-05-05 20:49:00,
2013-05-05 15:54:00,68.4,38.9,30.08,North,0,3.6,4.0,34,0.00,,---,0.00,VWS V14.00,2013-05-05 20:54:00,
2013-05-05 15:59:00,69.4,39.9,30.08,NNW,345,5.4,5.4,34,0.00,,---,0.00,VWS V14.00,2013-05-05 20:59:00,
2013-05-05 16:04:00,69.3,39.0,30.08,NW,324,0.0,4.0,33,0.00,,---,0.00,VWS V14.00,2013-05-05 21:04:00,
2013-05-05 16:09:00,68.9,38.6,30.08,NW,319,2.7,7.6,33,0.00,,---,0.00,VWS V14.00,2013-05-05 21:09:00,
2013-05-05 16:14:00,68.9,38.6,30.08,NNE,15,8.1,8.3,33,0.00,,---,0.00,VWS V14.00,2013-05-05 21:14:00,
2013-05-05 16:19:00,68.2,38.8,30.08,NE,35,5.4,5.4,34,0.00,,---,0.00,VWS V14.00,2013-05-05 21:19:00,
2013-05-05 16:24:00,68.2,38.8,30.08,NE,38,5.4,5.4,34,0.00,,---,0.00,VWS V14.00,2013-05-05 21:24:00,
2013-05-05 16:29:00,68.5,39.1,30.08,ESE,114,4.0,4.0,34,0.00,,---,0.00,VWS V14.00,2013-05-05 21:29:00,
2013-05-05 16:34:00,68.9,39.4,30.08,NNE,16,4.5,4.5,34,0.00,,---,0.00,VWS V14.00,2013-05-05 21:34:00,
2013-05-05 16:39:00,68.5,39.1,30.08,North,2,2.2,3.1,34,0.00,,---,0.00,VWS V14.00,2013-05-05 21:39:00,
2013-05-05 16:44:00,68.7,39.2,30.08,North,2,2.2,3.1,34,0.00,,---,0.00,VWS V14.00,2013-05-05 21:44:00,
2013-05-05 16:49:00,68.7,39.2,30.08,NNE,31,8.1,8.7,34,0.00,,---,0.00,VWS V14.00,2013-05-05 21:49:00,
2013-05-05 16:54:00,68.7,40.0,30.08,NE,35,3.6,5.8,35,0.00,,---,0.00,VWS V14.00,2013-05-05 21:54:00,
2013-05-05 16:59:00,68.9,39.4,30.08,NNE,13,4.0,6.3,34,0.00,,---,0.00,VWS V14.00,2013-05-05 21:59:00,
2013-05-05 17:04:00,69.1,39.6,30.08,North,353,2.7,3.6,34,0.00,,---,0.00,VWS V14.00,2013-05-05 22:04:00,
2013-05-05 17:09:00,69.1,39.6,30.08,NNW,344,2.2,4.0,34,0.00,,---,0.00,VWS V14.00,2013-05-05 22:09:00,
2013-05-05 17:14:00,69.4,39.9,30.08,North,2,5.4,5.8,34,0.00,,---,0.00,VWS V14.00,2013-05-05 22:14:00,
2013-05-05 17:19:00,69.1,39.6,30.08,North,349,5.4,5.8,34,0.00,,---,0.00,VWS V14.00,2013-05-05 22:19:00,
2013-05-05 17:24:00,69.1,39.6,30.08,North,1,6.3,6.3,34,0.00,,---,0.00,VWS V14.00,2013-05-05 22:24:00,
2013-05-05 17:29:00,68.9,39.4,30.08,ENE,77,3.6,5.4,34,0.00,,---,0.00,VWS V14.00,2013-05-05 22:29:00,
2013-05-05 17:34:00,69.4,39.9,30.08,North,353,4.0,6.7,34,0.00,,---,0.00,VWS V14.00,2013-05-05 22:34:00,
2013-05-05 17:39:00,68.7,39.2,30.08,NNW,330,3.1,5.8,34,0.00,,---,0.00,VWS V14.00,2013-05-05 22:39:00,
2013-05-05 17:44:00,68.2,39.5,30.05,NNE,12,8.7,8.7,35,0.00,,---,0.00,VWS V14.00,2013-05-05 22:44:00,
2013-05-05 17:49:00,67.8,39.2,30.05,NNW,332,5.8,6.3,35,0.00,,---,0.00,VWS V14.00,2013-05-05 22:49:00,
2013-05-05 17:55:00,67.6,39.0,30.05,NW,308,4.9,5.8,35,0.00,,---,0.00,VWS V14.00,2013-05-05 22:55:00,
2013-05-05 18:00:00,67.6,39.8,30.05,North,1,5.8,5.8,36,0.00,,---,0.00,VWS V14.00,2013-05-05 23:00:00,
2013-05-05 18:05:00,67.5,39.6,30.05,North,10,8.3,8.3,36,0.00,,---,0.00,VWS V14.00,2013-05-05 23:05:00,
2013-05-05 18:10:00,67.3,39.4,30.05,NNW,330,6.3,7.6,36,0.00,,---,0.00,VWS V14.00,2013-05-05 23:10:00,
2013-05-05 18:15:00,67.1,40.0,30.08,NNW,341,5.4,6.7,37,0.00,,---,0.00,VWS V14.00,2013-05-05 23:15:00,
2013-05-05 18:20:00,67.1,40.0,30.08,North,3,8.1,8.1,37,0.00,,---,0.00,VWS V14.00,2013-05-05 23:20:00,
2013-05-05 18:25:00,67.1,40.0,30.08,NNW,342,6.3,8.1,37,0.00,,---,0.00,VWS V14.00,2013-05-05 23:25:00,
2013-05-05 18:30:00,66.9,39.8,30.08,North,6,5.4,8.1,37,0.00,,---,0.00,VWS V14.00,2013-05-05 23:30:00,
2013-05-05 18:35:00,67.1,40.0,30.08,NNE,12,7.6,7.6,37,0.00,,---,0.00,VWS V14.00,2013-05-05 23:35:00,
2013-05-05 18:40:00,66.6,39.5,30.08,NNW,339,6.3,8.1,37,0.00,,---,0.00,VWS V14.00,2013-05-05 23:40:00,
2013-05-05 18:45:00,66.2,39.2,30.05,North,0,7.6,7.6,37,0.00,,---,0.00,VWS V14.00,2013-05-05 23:45:00,
2013-05-05 18:50:00,66.2,39.2,30.05,North,357,2.2,3.6,37,0.00,,---,0.00,VWS V14.00,2013-05-05 23:50:00,
2013-05-05 18:55:00,66.0,39.7,30.05,NNW,344,5.4,5.4,38,0.00,,---,0.00,VWS V14.00,2013-05-05 23:55:00,
2013-05-05 19:00:00,65.8,39.5,30.05,NNE,19,5.4,7.6,38,0.00,,---,0.00,VWS V14.00,2013-05-06 00:00:00,
2013-05-05 19:05:00,65.8,39.5,30.05,NNE,18,4.9,5.4,38,0.00,,---,0.00,VWS V14.00,2013-05-06 00:05:00,
2013-05-05 19:10:00,65.7,40.0,30.05,NNW,346,2.7,4.0,39,0.00,,---,0.00,VWS V14.00,2013-05-06 00:10:00,
2013-05-05 19:15:00,65.7,40.0,30.05,NNE,21,4.0,4.9,39,0.00,,---,0.00,VWS V14.00,2013-05-06 00:15:00,
2013-05-05 19:20:00,65.5,39.9,30.05,North,9,5.4,5.4,39,0.00,,---,0.00,VWS V14.00,2013-05-06 00:20:00,
2013-05-05 19:25:00,65.5,39.9,30.05,NE,40,2.2,4.0,39,0.00,,---,0.00,VWS V14.00,2013-05-06 00:25:00,
2013-05-05 19:30:00,65.3,39.1,30.05,NNE,25,3.1,3.6,38,0.00,,---,0.00,VWS V14.00,2013-05-06 00:30:00,
2013-05-05 19:35:00,65.3,39.7,30.05,NE,40,4.9,6.3,39,0.00,,---,0.00,VWS V14.00,2013-05-06 00:35:00,
2013-05-05 19:40:00,65.1,39.6,30.05,NNE,33,3.1,4.0,39,0.00,,---,0.00,VWS V14.00,2013-05-06 00:40:00,
2013-05-05 19:45:00,64.4,38.9,30.08,NE,34,4.0,4.0,39,0.00,,---,0.00,VWS V14.00,2013-05-06 00:45:00,
2013-05-05 19:50:00,64.0,39.2,30.08,NNE,26,0.0,3.1,40,0.00,,---,0.00,VWS V14.00,2013-05-06 00:50:00,
2013-05-05 19:55:00,63.5,38.8,30.08,NNE,30,3.1,3.6,40,0.00,,---,0.00,VWS V14.00,2013-05-06 00:55:00,
2013-05-05 20:00:00,63.0,38.9,30.08,NE,36,2.7,3.6,41,0.00,,---,0.00,VWS V14.00,2013-05-06 01:00:00,
2013-05-05 20:05:00,62.1,38.7,30.08,NE,36,0.0,0.0,42,0.00,,---,0.00,VWS V14.00,2013-05-06 01:05:00,
2013-05-05 20:10:00,61.2,37.9,30.08,NE,36,0.0,0.0,42,0.00,,---,0.00,VWS V14.00,2013-05-06 01:10:00,
2013-05-05 20:15:00,60.3,38.3,30.05,NE,36,0.0,0.0,44,0.00,,---,0.00,VWS V14.00,2013-05-06 01:15:00,
2013-05-05 20:20:00,59.4,37.5,30.05,NE,36,0.0,0.0,44,0.00,,---,0.00,VWS V14.00,2013-05-06 01:20:00,
2013-05-05 20:25:00,58.5,37.2,30.05,NE,36,0.0,0.0,45,0.00,,---,0.00,VWS V14.00,2013-05-06 01:25:00,
2013-05-05 20:30:00,57.4,36.8,30.05,NE,36,0.0,0.0,46,0.00,,---,0.00,VWS V14.00,2013-05-06 01:30:00,
2013-05-05 20:35:00,56.3,36.3,30.05,NE,36,0.0,0.0,47,0.00,,---,0.00,VWS V14.00,2013-05-06 01:35:00,
2013-05-05 20:40:00,55.2,35.9,30.05,NE,36,0.0,0.0,48,0.00,,---,0.00,VWS V14.00,2013-05-06 01:40:00,
2013-05-05 20:45:00,54.3,35.6,30.05,NE,36,0.0,0.0,49,0.00,,---,0.00,VWS V14.00,2013-05-06 01:45:00,
2013-05-05 20:50:00,53.8,35.6,30.05,NE,37,0.0,0.0,50,0.00,,---,0.00,VWS V14.00,2013-05-06 01:50:00,
2013-05-05 20:55:00,53.1,35.4,30.05,NE,36,0.0,0.0,51,0.00,,---,0.00,VWS V14.00,2013-05-06 01:55:00,
2013-05-05 21:00:00,52.5,35.4,30.08,NE,36,0.0,0.0,52,0.00,,---,0.00,VWS V14.00,2013-05-06 02:00:00,
2013-05-05 21:06:00,52.0,35.4,30.08,NE,36,0.0,0.0,53,0.00,,---,0.00,VWS V14.00,2013-05-06 02:06:00,
2013-05-05 21:11:00,51.4,35.4,30.08,NE,36,0.0,0.0,54,0.00,,---,0.00,VWS V14.00,2013-05-06 02:11:00,
2013-05-05 21:16:00,51.1,35.5,30.08,NE,36,0.0,0.0,55,0.00,,---,0.00,VWS V14.00,2013-05-06 02:16:00,
2013-05-05 21:21:00,50.7,35.6,30.08,NE,36,0.0,0.0,56,0.00,,---,0.00,VWS V14.00,2013-05-06 02:21:00,
2013-05-05 21:26:00,50.2,35.5,30.08,NE,36,0.0,0.0,57,0.00,,---,0.00,VWS V14.00,2013-05-06 02:26:00,
2013-05-05 21:31:00,50.0,35.8,30.08,NE,36,0.0,0.0,58,0.00,,---,0.00,VWS V14.00,2013-05-06 02:31:00,
2013-05-05 21:36:00,49.5,36.2,30.08,NE,36,0.0,0.0,60,0.00,,---,0.00,VWS V14.00,2013-05-06 02:36:00,
2013-05-05 21:41:00,49.3,36.4,30.08,NE,36,0.0,0.0,61,0.00,,---,0.00,VWS V14.00,2013-05-06 02:41:00,
2013-05-05 21:46:00,49.3,36.8,30.08,NE,36,0.0,0.0,62,0.00,,---,0.00,VWS V14.00,2013-05-06 02:46:00,
2013-05-05 21:51:00,49.1,37.1,30.08,NE,36,0.0,0.0,63,0.00,,---,0.00,VWS V14.00,2013-05-06 02:51:00,
2013-05-05 21:56:00,48.7,37.1,30.08,NE,36,0.0,0.0,64,0.00,,---,0.00,VWS V14.00,2013-05-06 02:56:00,
2013-05-05 22:01:00,48.7,37.5,30.08,NE,36,0.0,0.0,65,0.00,,---,0.00,VWS V14.00,2013-05-06 03:01:00,
2013-05-05 22:06:00,48.4,37.2,30.08,NE,36,0.0,0.0,65,0.00,,---,0.00,VWS V14.00,2013-05-06 03:06:00,
2013-05-05 22:11:00,48.0,37.2,30.08,NE,36,0.0,0.0,66,0.00,,---,0.00,VWS V14.00,2013-05-06 03:11:00,
2013-05-05 22:16:00,47.7,37.3,30.08,NE,36,0.0,0.0,67,0.00,,---,0.00,VWS V14.00,2013-05-06 03:16:00,
2013-05-05 22:21:00,47.5,37.5,30.08,NE,36,0.0,0.0,68,0.00,,---,0.00,VWS V14.00,2013-05-06 03:21:00,
2013-05-05 22:26:00,47.7,38.0,30.08,NE,36,0.0,0.0,69,0.00,,---,0.00,VWS V14.00,2013-05-06 03:26:00,
2013-05-05 22:31:00,47.7,38.0,30.08,NE,36,0.0,0.0,69,0.00,,---,0.00,VWS V14.00,2013-05-06 03:31:00,
2013-05-05 22:36:00,47.5,37.8,30.08,NE,36,0.0,0.0,69,0.00,,---,0.00,VWS V14.00,2013-05-06 03:36:00,
2013-05-05 22:41:00,47.1,37.8,30.08,NE,36,0.0,0.0,70,0.00,,---,0.00,VWS V14.00,2013-05-06 03:41:00,
2013-05-05 22:46:00,46.8,37.5,30.08,NE,36,0.0,0.0,70,0.00,,---,0.00,VWS V14.00,2013-05-06 03:46:00,
2013-05-05 22:51:00,46.4,37.5,30.08,NE,36,0.0,0.0,71,0.00,,---,0.00,VWS V14.00,2013-05-06 03:51:00,
2013-05-05 22:56:00,46.0,37.5,30.08,NE,36,0.0,0.0,72,0.00,,---,0.00,VWS V14.00,2013-05-06 03:56:00,
2013-05-05 23:01:00,46.0,37.9,30.08,NE,36,0.0,0.0,73,0.00,,---,0.00,VWS V14.00,2013-05-06 04:01:00,
2013-05-05 23:03:00,46.2,38.1,30.08,NE,36,0.0,0.0,73,0.00,,---,0.00,VWS V14.00,2013-05-06 04:03:00,
2013-05-05 23:08:00,46.4,38.2,30.08,NE,36,0.0,0.0,73,0.00,,---,0.00,VWS V14.00,2013-05-06 04:08:00,
2013-05-05 23:13:00,46.4,38.2,30.08,NE,36,0.0,0.0,73,0.00,,---,0.00,VWS V14.00,2013-05-06 04:13:00,
2013-05-05 23:18:00,46.6,38.8,30.08,NE,36,0.0,0.0,74,0.00,,---,0.00,VWS V14.00,2013-05-06 04:18:00,
2013-05-05 23:23:00,46.8,39.3,30.08,NE,36,0.0,0.0,75,0.00,,---,0.00,VWS V14.00,2013-05-06 04:23:00,
2013-05-05 23:28:00,46.9,39.8,30.08,NE,36,0.0,0.0,76,0.00,,---,0.00,VWS V14.00,2013-05-06 04:28:00,
2013-05-05 23:33:00,46.9,39.8,30.08,NE,36,0.0,0.0,76,0.00,,---,0.00,VWS V14.00,2013-05-06 04:33:00,
2013-05-05 23:38:00,46.6,39.4,30.08,NE,37,0.0,0.0,76,0.00,,---,0.00,VWS V14.00,2013-05-06 04:38:00,
2013-05-05 23:43:00,46.2,39.4,30.08,NE,36,0.0,0.0,77,0.00,,---,0.00,VWS V14.00,2013-05-06 04:43:00,
2013-05-05 23:48:00,45.7,38.9,30.08,NE,37,0.0,0.0,77,0.00,,---,0.00,VWS V14.00,2013-05-06 04:48:00,
2013-05-05 23:53:00,45.5,39.0,30.08,NE,36,0.0,0.0,78,0.00,,---,0.00,VWS V14.00,2013-05-06 04:53:00,
2013-05-05 23:58:00,45.5,39.0,30.08,NE,36,0.0,0.0,78,0.00,,---,0.00,VWS V14.00,2013-05-06 04:58:00,